Osoyoos, British Columbia

6:27 PM PDT on March 29, 2017 (GMT -0700)
Osoyoos

Weather History for CWYY - July, 2013

Change the Weather History Date:

Tuesday, July 23, 2013

  Actual Average (CYYF) Record (CYYF)
Temperature  
Mean Temperature 81 °F -  
Max Temperature 99 °F 83 °F 98 °F (2006)
Min Temperature 63 °F 56 °F 46 °F (2011)
Cooling Degree Days 16    
Growing Degree Days 31 (Base 50)    
Moisture  
Dew Point 49 °F    
Average Humidity 35    
Maximum Humidity 62    
Minimum Humidity 8    
Precipitation  
Precipitation 0.00 in - - ()
Sea Level Pressure  
Sea Level Pressure 29.89 in    
Wind  
Wind Speed 2 mph ()    
Max Wind Speed 5 mph    
Max Gust Speed -    
Averages and records for this station are not official NWS values.
T = Trace of Precipitation, MM = Missing Value Source: Averaged Metar Reports

Daily Weather History Graph

Daily Weather History Graph

Search for Another Location

Airport or City:

Trip Planner

Search our weather history database for the weather conditions in past years. The results will help you decide how hot, cold, wet, or windy it might be!

Date:

Astronomy

Jul. 23, 2013 Rise Set
Actual Time 5:19 AM PDT 8:48 PM PDT
Civil Twilight 4:40 AM PDT 9:27 PM PDT
Nautical Twilight 3:47 AM PDT 10:19 PM PDT
Astronomical Twilight 2:36 AM PDT 11:29 PM PDT
Moon 9:04 PM PDT (7/23) 6:45 AM PDT (7/23)
Length of Visible Light 16h 47m
Length of Day
15h 29m
Full, 98% of the Moon is Illuminated
Jul 23
Full
Jul 29
Last Quarter
Aug 6
New
Aug 14
First Quarter
Aug 20
Full

Hourly Weather History & Observations

Time (PDT) Temp. Heat Index Dew Point Humidity Pressure Visibility Wind Dir Wind Speed Gust Speed Precip Events Conditions
12:00 AM 80.1 °F - 45.5 °F 30% 29.85 in - NW 3.5 mph - N/A   Unknown
1:00 AM 73.2 °F - 50.2 °F 44% 29.87 in - North 2.3 mph - N/A   Unknown
2:00 AM 70.7 °F - 49.6 °F 47% 29.89 in - NE 2.3 mph - N/A   Unknown
3:00 AM 71.8 °F - 48.2 °F 43% 29.90 in - East 2.3 mph - N/A   Unknown
4:00 AM 68.9 °F - 50.0 °F 51% 29.92 in - NE 1.2 mph - N/A   Unknown
5:00 AM 69 °F - 51 °F 42% 29.94 in - NE 3.5 mph - -  
5:00 AM 68.5 °F - 51.1 °F 54% 29.94 in - NE 3.5 mph - N/A   Unknown
6:00 AM 67.8 °F - 47.8 °F 49% 29.96 in - NNE 4.6 mph - N/A   Unknown
7:00 AM 68.2 °F - 52.9 °F 58% 29.97 in - NNE 1.2 mph - N/A   Unknown
8:00 AM 72.3 °F - 54.0 °F 52% 29.97 in - ENE 1.2 mph - N/A   Unknown
9:00 AM 76.6 °F - 45.5 °F 33% 29.97 in - North 2.3 mph - N/A   Unknown
10:00 AM 79.7 °F - 48.6 °F 33% 29.96 in - ENE 2.3 mph - N/A   Unknown
11:00 AM 84 °F - 47 °F 18% 29.94 in - North 2.3 mph - -  
11:00 AM 83.7 °F - 46.9 °F 28% 29.94 in - North 2.3 mph - N/A   Unknown
12:00 PM 86.9 °F - 47.8 °F 26% 29.93 in - North 2.3 mph - N/A   Unknown
1:00 PM 90.1 °F - 46.6 °F 22% 29.90 in - NW 2.3 mph - N/A   Unknown
2:00 PM 93.7 °F - 45.1 °F 19% 29.88 in - South 2.3 mph - N/A   Unknown
3:00 PM 93.7 °F - 37.6 °F 14% 29.86 in - East 2.3 mph - N/A   Unknown
4:00 PM 96.1 °F - 43.0 °F 16% 29.83 in - South 2.3 mph - N/A   Unknown
5:00 PM 99 °F - 43 °F 8% 29.81 in - West 1.2 mph - -  
5:00 PM 98.6 °F - 43.0 °F 15% 29.81 in - West 1.2 mph - N/A   Unknown
6:00 PM 97.0 °F - 40.6 °F 14% 29.79 in - NNE 1.2 mph - N/A   Unknown
7:00 PM 96.1 °F - 46.6 °F 18% 29.79 in - Calm Calm - N/A   Unknown
8:00 PM 83.3 °F 84.6 °F 64.0 °F 52% 29.80 in - NNE 1.2 mph - N/A   Unknown
9:00 PM 76.5 °F - 58.6 °F 54% 29.81 in - NNE 1.2 mph - N/A   Unknown
10:00 PM 73.4 °F - 59.7 °F 62% 29.83 in - NNE 3.5 mph - N/A   Unknown
11:00 PM 76.5 °F - 49.8 °F 39% 29.84 in - NE 3.5 mph - N/A   Unknown